Time,TemperatureF,DewpointF,PressureIn,WindDirection,WindDirectionDegrees,WindSpeedMPH,WindSpeedGustMPH,Humidity,HourlyPrecipIn,Conditions,Clouds,dailyrainin,SoftwareType,DateUTC
2013-04-04 00:02:00,42.0,25.0,30.29,ENE,71,6.0,10.0,51,0.00,,,0.00,,2013-04-04 05:02:00,
2013-04-04 00:13:00,42.0,25.0,30.29,ENE,71,6.0,10.0,51,0.00,,,0.00,,2013-04-04 05:13:00,
2013-04-04 00:23:00,41.0,24.0,30.29,ENE,66,5.0,8.0,51,0.00,,,0.00,,2013-04-04 05:23:00,
2013-04-04 00:32:00,41.0,24.0,30.28,ENE,71,6.0,10.0,50,0.00,,,0.00,,2013-04-04 05:32:00,
2013-04-04 00:42:00,41.0,24.0,30.28,ENE,71,6.0,10.0,50,0.00,,,0.00,,2013-04-04 05:42:00,
2013-04-04 00:52:00,41.0,25.0,30.28,ENE,78,6.0,10.0,52,0.00,,,0.00,,2013-04-04 05:52:00,
2013-04-04 01:02:00,41.0,26.0,30.28,ENE,69,5.0,8.0,54,0.00,,,0.00,,2013-04-04 06:02:00,
2013-04-04 01:12:00,41.0,26.0,30.28,ENE,69,5.0,8.0,54,0.00,,,0.00,,2013-04-04 06:12:00,
2013-04-04 01:22:00,41.0,27.0,30.28,ENE,63,2.0,6.0,56,0.00,,,0.00,,2013-04-04 06:22:00,
2013-04-04 01:32:00,40.0,26.0,30.28,ENE,65,2.0,5.0,56,0.00,,,0.00,,2013-04-04 06:32:00,
2013-04-04 01:42:00,40.0,26.0,30.28,ENE,65,2.0,5.0,56,0.00,,,0.00,,2013-04-04 06:42:00,
2013-04-04 01:52:00,40.0,26.0,30.27,ENE,62,4.0,6.0,56,0.00,,,0.00,,2013-04-04 06:52:00,
2013-04-04 02:02:00,40.0,25.0,30.27,ENE,61,5.0,7.0,55,0.00,,,0.00,,2013-04-04 07:02:00,
2013-04-04 02:12:00,40.0,25.0,30.27,ENE,61,5.0,7.0,55,0.00,,,0.00,,2013-04-04 07:12:00,
2013-04-04 02:22:00,40.0,25.0,30.26,ENE,64,4.0,8.0,54,0.00,,,0.00,,2013-04-04 07:22:00,
2013-04-04 02:32:00,40.0,25.0,30.26,ENE,69,4.0,6.0,54,0.00,,,0.00,,2013-04-04 07:32:00,
2013-04-04 02:43:00,40.0,25.0,30.26,ENE,69,4.0,6.0,54,0.00,,,0.00,,2013-04-04 07:43:00,
2013-04-04 02:52:00,40.0,26.0,30.25,ENE,76,3.0,7.0,57,0.00,,,0.00,,2013-04-04 07:52:00,
2013-04-04 03:02:00,39.0,25.0,30.25,ENE,74,4.0,7.0,57,0.00,,,0.00,,2013-04-04 08:02:00,
2013-04-04 03:12:00,39.0,25.0,30.25,ENE,74,4.0,7.0,57,0.00,,,0.00,,2013-04-04 08:12:00,
2013-04-04 03:22:00,39.0,24.0,30.24,NE,51,4.0,7.0,55,0.00,,,0.00,,2013-04-04 08:22:00,
2013-04-04 03:32:00,39.0,25.0,30.24,ENE,76,5.0,7.0,56,0.00,,,0.00,,2013-04-04 08:32:00,
2013-04-04 03:43:00,39.0,25.0,30.24,ENE,76,5.0,7.0,56,0.00,,,0.00,,2013-04-04 08:43:00,
2013-04-04 03:52:00,39.0,26.0,30.23,ENE,75,4.0,7.0,59,0.00,,,0.00,,2013-04-04 08:52:00,
2013-04-04 04:02:00,38.0,25.0,30.23,ENE,57,4.0,7.0,58,0.00,,,0.00,,2013-04-04 09:02:00,
2013-04-04 04:12:00,38.0,25.0,30.23,ENE,57,4.0,7.0,58,0.00,,,0.00,,2013-04-04 09:12:00,
2013-04-04 04:22:00,38.0,24.0,30.22,NE,53,4.0,7.0,57,0.00,,,0.00,,2013-04-04 09:22:00,
2013-04-04 04:33:00,37.0,24.0,30.22,East,80,3.0,6.0,59,0.00,,,0.00,,2013-04-04 09:33:00,
2013-04-04 04:43:00,37.0,24.0,30.22,East,80,3.0,6.0,59,0.00,,,0.00,,2013-04-04 09:43:00,
2013-04-04 04:53:00,36.0,24.0,30.22,ENE,67,5.0,6.0,62,0.00,,,0.00,,2013-04-04 09:53:00,
2013-04-04 05:04:00,37.0,24.0,30.21,NE,53,4.0,7.0,58,0.00,,,0.00,,2013-04-04 10:04:00,
2013-04-04 05:12:00,37.0,24.0,30.21,NE,53,4.0,7.0,58,0.00,,,0.00,,2013-04-04 10:12:00,
2013-04-04 05:23:00,37.0,24.0,30.21,NE,54,3.0,6.0,58,0.00,,,0.00,,2013-04-04 10:23:00,
2013-04-04 05:33:00,37.0,23.0,30.21,NE,38,3.0,6.0,57,0.00,,,0.00,,2013-04-04 10:33:00,
2013-04-04 05:42:00,37.0,23.0,30.21,NE,38,3.0,6.0,57,0.00,,,0.00,,2013-04-04 10:42:00,
2013-04-04 05:53:00,35.0,23.0,30.21,North,5,3.0,5.0,62,0.00,,,0.00,,2013-04-04 10:53:00,
2013-04-04 06:02:00,34.0,23.0,30.21,NNE,28,2.0,6.0,63,0.00,,,0.00,,2013-04-04 11:02:00,
2013-04-04 06:12:00,34.0,23.0,30.21,NNE,28,2.0,6.0,63,0.00,,,0.00,,2013-04-04 11:12:00,
2013-04-04 06:22:00,33.0,23.0,30.21,North,5,2.0,5.0,67,0.00,,,0.00,,2013-04-04 11:22:00,
2013-04-04 06:33:00,33.0,23.0,30.21,North,5,2.0,5.0,67,0.00,,,0.00,,2013-04-04 11:33:00,
2013-04-04 06:42:00,33.0,23.0,30.21,North,5,2.0,5.0,67,0.00,,,0.00,,2013-04-04 11:42:00,
2013-04-04 06:53:00,32.0,23.0,30.21,NNE,26,3.0,5.0,68,0.00,,,0.00,,2013-04-04 11:53:00,
2013-04-04 07:02:00,32.0,23.0,30.20,NNE,22,3.0,5.0,68,0.00,,,0.00,,2013-04-04 12:02:00,
2013-04-04 07:12:00,32.0,23.0,30.20,NNE,22,3.0,5.0,68,0.00,,,0.00,,2013-04-04 12:12:00,
2013-04-04 07:22:00,32.0,22.0,30.21,ENE,62,0.0,4.0,66,0.00,,,0.00,,2013-04-04 12:22:00,
2013-04-04 07:32:00,34.0,24.0,30.21,ENE,66,4.0,6.0,66,0.00,,,0.00,,2013-04-04 12:32:00,
2013-04-04 07:43:00,34.0,24.0,30.21,ENE,66,4.0,6.0,66,0.00,,,0.00,,2013-04-04 12:43:00,
2013-04-04 07:52:00,35.0,23.0,30.21,NE,34,3.0,6.0,62,0.00,,,0.00,,2013-04-04 12:52:00,
2013-04-04 08:02:00,36.0,24.0,30.21,NE,38,4.0,6.0,62,0.00,,,0.00,,2013-04-04 13:02:00,
2013-04-04 08:12:00,36.0,24.0,30.21,NE,38,4.0,6.0,62,0.00,,,0.00,,2013-04-04 13:12:00,
2013-04-04 08:22:00,38.0,25.0,30.21,NE,49,6.0,10.0,58,0.00,,,0.00,,2013-04-04 13:22:00,
2013-04-04 08:32:00,39.0,25.0,30.20,NE,49,5.0,9.0,58,0.00,,,0.00,,2013-04-04 13:32:00,
2013-04-04 08:42:00,39.0,25.0,30.20,NE,49,5.0,9.0,58,0.00,,,0.00,,2013-04-04 13:42:00,
2013-04-04 08:52:00,40.0,24.0,30.20,ENE,60,8.0,12.0,52,0.00,,,0.00,,2013-04-04 13:52:00,
2013-04-04 09:03:00,41.0,25.0,30.19,ENE,65,7.0,9.0,53,0.00,,,0.00,,2013-04-04 14:03:00,
2013-04-04 09:12:00,41.0,25.0,30.19,ENE,65,7.0,9.0,53,0.00,,,0.00,,2013-04-04 14:12:00,
2013-04-04 09:22:00,41.0,24.0,30.19,ENE,72,6.0,10.0,51,0.00,,,0.00,,2013-04-04 14:22:00,
2013-04-04 09:32:00,41.0,24.0,30.19,ENE,72,6.0,10.0,51,0.00,,,0.00,,2013-04-04 14:32:00,
2013-04-04 09:42:00,41.0,24.0,30.19,ENE,72,6.0,10.0,51,0.00,,,0.00,,2013-04-04 14:42:00,
2013-04-04 09:52:00,43.0,25.0,30.18,ENE,72,5.0,8.0,48,0.00,,,0.00,,2013-04-04 14:52:00,
2013-04-04 10:02:00,43.0,25.0,30.18,ENE,72,5.0,8.0,48,0.00,,,0.00,,2013-04-04 15:02:00,
2013-04-04 10:12:00,43.0,25.0,30.18,ENE,72,5.0,8.0,48,0.00,,,0.00,,2013-04-04 15:12:00,
2013-04-04 10:23:00,46.0,25.0,30.17,East,82,5.0,9.0,44,0.00,,,0.00,,2013-04-04 15:23:00,
2013-04-04 10:33:00,47.0,26.0,30.17,ESE,106,5.0,9.0,43,0.00,,,0.00,,2013-04-04 15:33:00,
2013-04-04 10:43:00,47.0,26.0,30.17,ESE,106,5.0,9.0,43,0.00,,,0.00,,2013-04-04 15:43:00,
2013-04-04 10:53:00,48.0,26.0,30.16,East,83,1.0,8.0,42,0.00,,,0.00,,2013-04-04 15:53:00,
2013-04-04 11:03:00,49.0,25.0,30.16,East,99,3.0,7.0,39,0.00,,,0.00,,2013-04-04 16:03:00,
2013-04-04 11:12:00,49.0,25.0,30.16,East,99,3.0,7.0,39,0.00,,,0.00,,2013-04-04 16:12:00,
2013-04-04 11:24:00,49.0,25.0,30.16,East,98,2.0,8.0,38,0.00,,,0.00,,2013-04-04 16:24:00,
2013-04-04 11:32:00,50.0,25.0,30.15,SE,138,4.0,8.0,38,0.00,,,0.00,,2013-04-04 16:32:00,
2013-04-04 11:42:00,50.0,25.0,30.15,SE,138,4.0,8.0,38,0.00,,,0.00,,2013-04-04 16:42:00,
2013-04-04 11:53:00,51.0,30.0,30.15,SSE,155,6.0,10.0,44,0.00,,,0.00,,2013-04-04 16:53:00,
2013-04-04 12:03:00,51.0,29.0,30.15,SE,126,5.0,10.0,43,0.00,,,0.00,,2013-04-04 17:03:00,
2013-04-04 12:13:00,51.0,29.0,30.15,SE,126,5.0,10.0,43,0.00,,,0.00,,2013-04-04 17:13:00,
2013-04-04 12:22:00,52.0,30.0,30.14,ESE,107,5.0,9.0,42,0.00,,,0.00,,2013-04-04 17:22:00,
2013-04-04 12:33:00,52.0,27.0,30.14,East,84,1.0,7.0,37,0.00,,,0.00,,2013-04-04 17:33:00,
2013-04-04 12:42:00,52.0,27.0,30.14,East,84,1.0,7.0,37,0.00,,,0.00,,2013-04-04 17:42:00,
2013-04-04 12:53:00,53.0,29.0,30.14,East,93,6.0,8.0,39,0.00,,,0.00,,2013-04-04 17:53:00,
2013-04-04 13:02:00,53.0,23.0,30.13,ENE,69,3.0,9.0,31,0.00,,,0.00,,2013-04-04 18:02:00,
2013-04-04 13:12:00,53.0,23.0,30.13,ENE,69,3.0,9.0,31,0.00,,,0.00,,2013-04-04 18:12:00,
2013-04-04 13:23:00,55.0,30.0,30.12,NNE,15,6.0,10.0,38,0.00,,,0.00,,2013-04-04 18:23:00,
2013-04-04 13:32:00,56.0,26.0,30.11,North,5,2.0,10.0,31,0.00,,,0.00,,2013-04-04 18:32:00,
2013-04-04 13:43:00,56.0,26.0,30.11,North,5,2.0,10.0,31,0.00,,,0.00,,2013-04-04 18:43:00,
2013-04-04 13:52:00,55.0,26.0,30.10,NNW,344,2.0,10.0,32,0.00,,,0.00,,2013-04-04 18:52:00,
2013-04-04 14:02:00,57.0,27.0,30.10,NNE,24,8.0,12.0,31,0.00,,,0.00,,2013-04-04 19:02:00,
2013-04-04 14:12:00,57.0,27.0,30.10,NNE,24,8.0,12.0,31,0.00,,,0.00,,2013-04-04 19:12:00,
2013-04-04 14:22:00,56.0,26.0,30.10,NE,37,6.0,10.0,31,0.00,,,0.00,,2013-04-04 19:22:00,
2013-04-04 14:32:00,57.0,26.0,30.09,East,96,1.0,9.0,30,0.00,,,0.00,,2013-04-04 19:32:00,
2013-04-04 14:42:00,57.0,26.0,30.09,East,96,1.0,9.0,30,0.00,,,0.00,,2013-04-04 19:42:00,
2013-04-04 14:52:00,57.0,26.0,30.08,NNE,26,6.0,11.0,30,0.00,,,0.00,,2013-04-04 19:52:00,
2013-04-04 15:03:00,57.0,27.0,30.08,NNE,24,8.0,13.0,32,0.00,,,0.00,,2013-04-04 20:03:00,
2013-04-04 15:12:00,57.0,27.0,30.08,NNE,24,8.0,13.0,32,0.00,,,0.00,,2013-04-04 20:12:00,
2013-04-04 15:22:00,57.0,27.0,30.07,NE,39,6.0,10.0,32,0.00,,,0.00,,2013-04-04 20:22:00,
2013-04-04 15:32:00,57.0,27.0,30.06,NNE,25,6.0,12.0,32,0.00,,,0.00,,2013-04-04 20:32:00,
2013-04-04 15:42:00,57.0,27.0,30.06,NNE,25,6.0,12.0,32,0.00,,,0.00,,2013-04-04 20:42:00,
2013-04-04 15:53:00,57.0,26.0,30.06,NE,49,7.0,10.0,30,0.00,,,0.00,,2013-04-04 20:53:00,
2013-04-04 16:02:00,58.0,30.0,30.05,ENE,61,4.0,10.0,34,0.00,,,0.00,,2013-04-04 21:02:00,
2013-04-04 16:12:00,58.0,30.0,30.05,ENE,61,4.0,10.0,34,0.00,,,0.00,,2013-04-04 21:12:00,
2013-04-04 16:22:00,58.0,27.0,30.05,NE,37,0.0,8.0,30,0.00,,,0.00,,2013-04-04 21:22:00,
2013-04-04 16:32:00,58.0,24.0,30.05,NE,36,3.0,8.0,27,0.00,,,0.00,,2013-04-04 21:32:00,
2013-04-04 16:43:00,58.0,24.0,30.05,NE,36,3.0,8.0,27,0.00,,,0.00,,2013-04-04 21:43:00,
2013-04-04 16:53:00,58.0,26.0,30.05,NNE,29,3.0,8.0,29,0.00,,,0.00,,2013-04-04 21:53:00,
2013-04-04 17:03:00,58.0,23.0,30.04,ENE,59,0.0,5.0,26,0.00,,,0.00,,2013-04-04 22:03:00,
2013-04-04 17:12:00,58.0,23.0,30.04,ENE,59,0.0,5.0,26,0.00,,,0.00,,2013-04-04 22:12:00,
2013-04-04 17:23:00,58.0,24.0,30.04,ENE,68,0.0,4.0,27,0.00,,,0.00,,2013-04-04 22:23:00,
2013-04-04 17:33:00,58.0,27.0,30.04,East,81,2.0,6.0,30,0.00,,,0.00,,2013-04-04 22:33:00,
2013-04-04 17:42:00,58.0,27.0,30.04,East,81,2.0,6.0,30,0.00,,,0.00,,2013-04-04 22:42:00,
2013-04-04 17:53:00,59.0,25.0,30.04,ENE,74,1.0,5.0,27,0.00,,,0.00,,2013-04-04 22:53:00,
2013-04-04 18:02:00,58.0,25.0,30.04,East,98,0.0,2.0,28,0.00,,,0.00,,2013-04-04 23:02:00,
2013-04-04 18:12:00,58.0,25.0,30.04,East,98,0.0,2.0,28,0.00,,,0.00,,2013-04-04 23:12:00,
2013-04-04 18:22:00,59.0,26.0,30.04,North,360,1.0,5.0,28,0.00,,,0.00,,2013-04-04 23:22:00,
2013-04-04 18:32:00,57.0,24.0,30.04,North,5,0.0,7.0,28,0.00,,,0.00,,2013-04-04 23:32:00,
2013-04-04 18:42:00,57.0,24.0,30.04,North,5,0.0,7.0,28,0.00,,,0.00,,2013-04-04 23:42:00,
2013-04-04 18:52:00,56.0,27.0,30.05,NNW,329,4.0,6.0,33,0.00,,,0.00,,2013-04-04 23:52:00,
2013-04-04 19:02:00,55.0,29.0,30.04,NNW,332,2.0,5.0,37,0.00,,,0.00,,2013-04-05 00:02:00,
2013-04-04 19:12:00,55.0,29.0,30.04,NNW,332,2.0,5.0,37,0.00,,,0.00,,2013-04-05 00:12:00,
2013-04-04 19:22:00,53.0,27.0,30.04,NW,311,1.0,3.0,37,0.00,,,0.00,,2013-04-05 00:22:00,
2013-04-04 19:32:00,53.0,29.0,30.04,NW,323,0.0,5.0,39,0.00,,,0.00,,2013-04-05 00:32:00,
2013-04-04 19:42:00,53.0,29.0,30.04,NW,323,0.0,5.0,39,0.00,,,0.00,,2013-04-05 00:42:00,
2013-04-04 19:52:00,52.0,27.0,30.04,NW,323,0.0,2.0,38,0.00,,,0.00,,2013-04-05 00:52:00,
2013-04-04 20:02:00,51.0,28.0,30.04,NW,323,0.0,1.0,40,0.00,,,0.00,,2013-04-05 01:02:00,
2013-04-04 20:12:00,51.0,28.0,30.04,NW,323,0.0,1.0,40,0.00,,,0.00,,2013-04-05 01:12:00,
2013-04-04 20:22:00,49.0,29.0,30.04,NW,323,1.0,3.0,46,0.00,,,0.00,,2013-04-05 01:22:00,
2013-04-04 20:32:00,48.0,29.0,30.05,NW,323,1.0,2.0,48,0.00,,,0.00,,2013-04-05 01:32:00,
2013-04-04 20:42:00,48.0,29.0,30.05,NW,323,1.0,2.0,48,0.00,,,0.00,,2013-04-05 01:42:00,
2013-04-04 20:53:00,48.0,28.0,30.05,NW,323,0.0,1.0,46,0.00,,,0.00,,2013-04-05 01:53:00,
2013-04-04 21:03:00,46.0,34.0,30.05,NW,323,0.0,0.0,63,0.00,,,0.00,,2013-04-05 02:03:00,
2013-04-04 21:12:00,46.0,34.0,30.05,NW,323,0.0,0.0,63,0.00,,,0.00,,2013-04-05 02:12:00,
2013-04-04 21:22:00,45.0,33.0,30.05,NW,323,0.0,0.0,62,0.00,,,0.00,,2013-04-05 02:22:00,
2013-04-04 21:32:00,44.0,30.0,30.06,NW,323,0.0,0.0,58,0.00,,,0.00,,2013-04-05 02:32:00,
2013-04-04 21:42:00,44.0,30.0,30.06,NW,323,0.0,0.0,58,0.00,,,0.00,,2013-04-05 02:42:00,
2013-04-04 21:52:00,43.0,32.0,30.06,NW,323,0.0,0.0,64,0.00,,,0.00,,2013-04-05 02:52:00,
2013-04-04 22:02:00,42.0,35.0,30.06,NW,323,0.0,0.0,76,0.00,,,0.00,,2013-04-05 03:02:00,
2013-04-04 22:12:00,42.0,35.0,30.06,NW,323,0.0,0.0,76,0.00,,,0.00,,2013-04-05 03:12:00,
2013-04-04 22:22:00,42.0,35.0,30.06,NW,323,0.0,0.0,76,0.00,,,0.00,,2013-04-05 03:22:00,
2013-04-04 22:32:00,41.0,34.0,30.06,NW,323,0.0,0.0,75,0.00,,,0.00,,2013-04-05 03:32:00,
2013-04-04 22:43:00,41.0,34.0,30.06,NW,323,0.0,0.0,75,0.00,,,0.00,,2013-04-05 03:43:00,
2013-04-04 22:54:00,40.0,34.0,30.05,NW,323,0.0,0.0,78,0.00,,,0.00,,2013-04-05 03:54:00,
2013-04-04 23:02:00,40.0,34.0,30.05,NW,323,0.0,0.0,80,0.00,,,0.00,,2013-04-05 04:02:00,
2013-04-04 23:12:00,40.0,34.0,30.05,NW,323,0.0,0.0,80,0.00,,,0.00,,2013-04-05 04:12:00,
2013-04-04 23:22:00,39.0,30.0,30.06,NW,323,0.0,0.0,71,0.00,,,0.00,,2013-04-05 04:22:00,
2013-04-04 23:32:00,39.0,33.0,30.06,NW,323,0.0,0.0,78,0.00,,,0.00,,2013-04-05 04:32:00,
2013-04-04 23:42:00,39.0,33.0,30.06,NW,323,0.0,0.0,78,0.00,,,0.00,,2013-04-05 04:42:00,
2013-04-04 23:52:00,39.0,32.0,30.06,NW,323,0.0,0.0,77,0.00,,,0.00,,2013-04-05 04:52:00,